Simultaneous Nadir Overpasses (SNOs) Predictions

Prediction of SNOs between GOES-16 and NPP Satellite Orbit:

Table of predicted SNOs for the next 14.0 days since TLE Epoch: 3/9/2024
Index Date Time (GOES-16) GOES-16 Lat,Lon NPP Lat,Lon Distance(km) Time Diff (sec)
1 03/09/2024 06:32:46 -0.05, -75.20 0.21, -76.48 145.35 80
2 03/10/2024 06:11:23 -0.05, -75.20 -0.79, -71.95 370.83 80
3 03/11/2024 18:33:21 0.04, -75.22 -0.39, -77.27 232.77 80
4 03/12/2024 18:17:17 0.05, -75.23 0.62, -72.74 283.93 80
5 03/14/2024 06:39:07 -0.04, -75.24 0.57, -78.02 316.69 80
6 03/15/2024 06:17:43 -0.04, -75.25 -0.44, -73.49 200.06 80
7 03/16/2024 18:39:42 0.04, -75.27 -0.73, -78.81 402.94 80
8 03/17/2024 18:23:37 0.04, -75.28 0.23, -74.27 114.39 80
9 03/19/2024 06:45:26 -0.03, -75.30 0.95, -79.55 484.91 80
10 03/20/2024 06:24:03 -0.02, -75.32 -0.07, -75.03 32.78 80
11 03/22/2024 18:27:18 0.01, -75.37 -0.08, -75.82 50.81 80
